NR0Q Weather Reports


Display with metric or nautical units.
time (UTC)temp
F
wind
direction
speed
MPH
gust
MPH
rain 1hr
in
rain 24hr
in
rain mn
in
humidity
%
barometer
mb
20260510141501 61 61 2.0 8.0 0.03 0.03 0.00 78 1017.6
20260510140001 61 335 2.0 4.0 0.03 0.03 0.00 81 1017.6
20260510134501 61 34 2.0 4.0 0.02 0.02 0.00 83 1017.6
20260510133001 61 140 2.0 4.0 0.01 0.01 0.00 82 1018.6
20260510131501 61 55 2.0 4.0 0.00 0.00 0.00 82 1018.6
20260510130001 60 124 2.0 2.0 0.00 0.00 0.00 86 1017.6
20260510124501 59 343 2.0 2.0 0.00 0.00 0.00 89 1017.6
20260510123001 59 253 0.0 2.0 0.00 0.00 0.00 89 1016.6
20260510121501 59 194 2.0 4.0 0.00 0.00 0.00 89 1015.6
20260510120001 58 136 2.0 4.0 0.00 0.00 0.00 89 1015.6
20260510114501 58 119 2.0 4.0 0.00 0.00 0.00 89 1014.6
20260510113001 58 142 2.0 2.0 0.00 0.00 0.00 88 1014.6
20260510111501 59 25 2.0 4.0 0.00 0.00 0.00 86 1014.6
20260510110001 59 106 2.0 6.0 0.00 0.00 0.00 85 1014.6
20260510104501 60 269 2.0 4.0 0.00 0.00 0.00 83 1013.6
20260510103001 61 311 0.0 2.0 0.00 0.00 0.00 81 1013.6
20260510101501 61 128 6.0 6.0 0.00 0.00 0.00 78 1013.6
20260510100001 60 167 2.0 4.0 0.00 0.00 0.00 80 1013.6
20260510094502 59 88 2.0 4.0 0.00 0.00 0.00 84 1013.6
20260510093002 60 348 2.0 2.0 0.00 0.00 0.00 84 1013.6
20260510091501 60 214 0.0 2.0 0.00 0.00 0.00 83 1013.6
20260510090001 61 348 0.0 0.0 0.00 0.00 0.00 81 1013.6
20260510084501 62 54 0.0 0.0 0.00 0.00 0.00 79 1012.5
20260510083001 62 124 0.0 0.0 0.00 0.00 0.00 76 1012.5
20260510081501 64 293 0.0 2.0 0.00 0.00 0.00 73 1011.5
20260510080001 65 135 2.0 0.0 0.00 0.00 0.00 72 1012.5
20260510074501 67 29 0.0 0.0 0.00 0.00 0.00 66 1011.5
20260510073001 68 25 0.0 2.0 0.00 0.00 0.00 63 1012.5
20260510071501 68 252 2.0 2.0 0.00 0.00 0.00 61 1011.5
20260510070001 66 139 11.0 17.0 0.00 0.00 0.00 65 1011.5
20260510064501 67 128 4.0 4.0 0.00 0.00 0.00 65 1012.5
20260510063001 67 285 4.0 6.0 0.00 0.00 0.00 63 1011.5
20260510061501 65 146 13.0 13.0 0.00 0.00 0.00 71 1011.5
20260510060001 64 118 2.0 2.0 0.00 0.00 0.00 74 1013.6
20260510054502 65 142 0.0 0.0 0.00 0.00 0.00 73 1013.6
20260510053001 65 315 2.0 2.0 0.00 0.00 0.00 73 1014.6
20260510051501 65 255 0.0 0.0 0.00 0.00 0.00 71 1013.6
20260510050001 65 315 0.0 0.0 0.00 0.00 0.00 72 1014.6
20260510044501 65 37 0.0 0.0 0.00 0.00 0.00 73 1014.6
20260510043001 64 242 0.0 0.0 0.00 0.00 0.00 75 1014.6
20260510041502 64 297 0.0 0.0 0.00 0.00 0.00 77 1013.6
20260510040001 64 129 0.0 0.0 0.00 0.00 0.00 77 1012.5
20260510034501 64 178 0.0 0.0 0.00 0.00 0.00 75 1012.5
20260510033001 64 315 0.0 0.0 0.00 0.00 0.00 74 1012.5
20260510031501 64 141 0.0 0.0 0.00 0.00 0.00 73 1012.5
20260510030001 65 129 0.0 0.0 0.00 0.00 0.00 71 1012.5
20260510024501 66 95 2.0 2.0 0.00 0.00 0.00 71 1012.5
20260510023001 66 315 0.0 0.0 0.00 0.00 0.00 69 1011.5
20260510021501 67 129 0.0 0.0 0.00 0.00 0.00 66 1011.5
20260510014501 70 39 0.0 0.0 0.00 0.00 0.00 54 1010.5
20260510013001 72 84 2.0 0.0 0.00 0.00 0.00 52 1009.5
20260510011501 75 230 0.0 0.0 0.00 0.00 0.00 45 1009.5
20260510010001 76 333 2.0 0.0 0.00 0.00 0.00 39 1009.5
20260510004501 78 240 0.0 0.0 0.00 0.00 0.00 36 1009.5
20260510003003 79 151 2.0 4.0 0.00 0.00 0.00 36 1009.5
20260510001501 80 18 4.0 4.0 0.00 0.01 0.00 34 1009.5
20260510000001 80 164 4.0 8.0 0.00 0.01 0.00 32 1009.5
20260509234501 80 91 0.0 6.0 0.00 0.03 0.00 33 1009.5
20260509233001 81 168 4.0 8.0 0.00 0.10 0.00 32 1009.5
20260509231501 81 139 4.0 13.0 0.00 0.18 0.00 30 1009.5
20260509230001 82 102 2.0 4.0 0.00 0.18 0.00 27 1009.5
20260509224501 82 126 8.0 8.0 0.00 0.23 0.00 29 1009.5
20260509223001 82 124 8.0 8.0 0.00 0.45 0.00 27 1009.5
20260509221501 82 158 6.0 8.0 0.00 0.66 0.00 29 1009.5
20260509220001 82 149 0.0 4.0 0.00 0.66 0.00 28 1009.5
20260509214502 82 116 8.0 11.0 0.00 0.66 0.00 28 1009.5
20260509213001 82 134 2.0 8.0 0.00 0.66 0.00 28 1010.5
20260509211501 82 237 2.0 2.0 0.00 0.66 0.00 27 1010.5
20260509210001 82 79 2.0 6.0 0.00 0.66 0.00 28 1010.5
20260509204502 82 201 4.0 4.0 0.00 0.66 0.00 33 1010.5
20260509203001 82 175 4.0 6.0 0.00 0.66 0.00 34 1010.5
20260509201501 82 206 2.0 4.0 0.00 0.66 0.00 30 1010.5
20260509200001 82 201 2.0 2.0 0.00 0.66 0.00 31 1011.5
20260509194501 82 112 2.0 2.0 0.00 0.66 0.00 34 1011.5
20260509191501 81 197 4.0 6.0 0.00 0.66 0.00 37 1011.5
20260509190001 81 222 0.0 2.0 0.00 0.66 0.00 37 1011.5
20260509184501 81 180 0.0 2.0 0.00 0.66 0.00 35 1011.5
20260509183001 80 126 4.0 6.0 0.00 0.66 0.00 40 1011.5
20260509181501 80 109 4.0 6.0 0.00 0.66 0.00 42 1011.5
20260509180001 79 186 0.0 2.0 0.00 0.66 0.00 48 1011.5
20260509174501 79 249 2.0 2.0 0.00 0.66 0.00 55 1012.5
20260509173001 78 215 4.0 4.0 0.00 0.66 0.00 58 1012.5
20260509171501 77 154 2.0 4.0 0.00 0.66 0.00 55 1012.5
20260509170001 76 93 2.0 4.0 0.00 0.66 0.00 60 1012.5
20260509164501 75 179 4.0 4.0 0.00 0.66 0.00 68 1012.5
20260509163002 75 201 4.0 4.0 0.00 0.66 0.00 65 1012.5
20260509161501 73 208 2.0 4.0 0.00 0.66 0.00 72 1012.5
20260509160001 72 119 2.0 2.0 0.00 0.66 0.00 74 1012.5
20260509154501 70 89 2.0 4.0 0.00 0.66 0.00 79 1012.5
20260509153001 69 150 4.0 4.0 0.00 0.66 0.00 82 1012.5
20260509151501 68 146 2.0 4.0 0.00 0.66 0.00 83 1012.5
20260509150001 67 334 4.0 4.0 0.00 0.66 0.00 83 1012.5
20260509144501 66 171 0.0 2.0 0.00 0.66 0.00 86 1012.5
20260509143001 64 141 0.0 0.0 0.00 0.66 0.00 90 1012.5